TimeAKST,TemperatureF,Dew PointF,Humidity,Sea Level PressureIn,VisibilityMPH,Wind Direction,Wind SpeedMPH,Gust SpeedMPH,PrecipitationIn,Events,Conditions,WindDirDegrees,DateUTC
12:55 AM,29.7,28.2,94,30.36,10.0,SW,8.1,-,N/A,,Overcast,230,2012-11-07 09:55:00
1:55 AM,30.2,28.0,92,30.36,10.0,WSW,12.7,-,N/A,Snow,Light Snow,250,2012-11-07 10:55:00
2:55 AM,30.0,29.1,96,30.38,9.0,WSW,9.2,-,N/A,Snow,Light Snow,240,2012-11-07 11:55:00
3:55 AM,29.8,29.8,100,30.38,10.0,WSW,10.4,-,N/A,Snow,Light Snow,240,2012-11-07 12:55:00
4:55 AM,30.0,29.7,99,30.37,10.0,WSW,15.0,-,N/A,,Mostly Cloudy,240,2012-11-07 13:55:00
5:55 AM,30.0,29.8,99,30.38,10.0,SW,12.7,-,N/A,,Mostly Cloudy,230,2012-11-07 14:55:00
6:55 AM,30.2,30.2,100,30.38,10.0,SW,13.8,-,N/A,,Mostly Cloudy,220,2012-11-07 15:55:00
7:10 AM,30.2,30.2,100,30.39,10.0,SW,13.8,-,N/A,,Mostly Cloudy,230,2012-11-07 16:10:00
7:55 AM,30.2,30.2,100,30.39,10.0,SW,11.5,-,N/A,,Overcast,220,2012-11-07 16:55:00
8:44 AM,30.2,30.2,100,30.39,10.0,SSW,12.7,-,N/A,,Mostly Cloudy,210,2012-11-07 17:44:00
8:55 AM,30.2,30.2,100,30.39,10.0,SSW,11.5,-,N/A,,Mostly Cloudy,210,2012-11-07 17:55:00
9:10 AM,30.2,30.2,100,30.40,10.0,SSW,10.4,-,N/A,,Mostly Cloudy,200,2012-11-07 18:10:00
9:55 AM,29.5,29.7,100,30.40,10.0,SSW,10.4,-,N/A,,Mostly Cloudy,200,2012-11-07 18:55:00
10:55 AM,28.4,28.4,100,30.40,10.0,SSW,11.5,-,N/A,,Mostly Cloudy,200,2012-11-07 19:55:00
11:55 AM,28.4,28.4,100,30.40,10.0,South,12.7,-,N/A,,Partly Cloudy,190,2012-11-07 20:55:00
12:19 PM,28.4,28.4,100,30.40,10.0,South,13.8,-,N/A,,Clear,180,2012-11-07 21:19:00
12:55 PM,28.4,28.4,100,30.38,10.0,South,16.1,-,N/A,,Scattered Clouds,190,2012-11-07 21:55:00
1:55 PM,30.2,30.2,100,30.39,10.0,South,18.4,-,N/A,,Mostly Cloudy,190,2012-11-07 22:55:00
2:19 PM,28.4,28.4,100,30.39,5.0,South,19.6,-,N/A,,Mostly Cloudy,190,2012-11-07 23:19:00
2:36 PM,28.4,28.4,100,30.39,10.0,South,19.6,-,N/A,,Mostly Cloudy,190,2012-11-07 23:36:00
2:55 PM,28.4,28.4,100,30.38,0.8,SSW,19.6,-,N/A,,Mostly Cloudy,200,2012-11-07 23:55:00
3:01 PM,28.4,28.4,100,30.38,0.2,South,20.7,-,N/A,Fog,Light Freezing Fog,190,2012-11-08 00:01:00
3:13 PM,28.4,28.4,100,30.38,1.2,South,18.4,-,N/A,,Mist,190,2012-11-08 00:13:00
3:20 PM,28.4,28.4,100,30.38,3.0,South,19.6,-,N/A,,Mostly Cloudy,190,2012-11-08 00:20:00
3:29 PM,-9999,-9999,N/A,30.38,1.2,South,19.6,-,N/A,,Mostly Cloudy,190,2012-11-08 00:29:00
3:40 PM,28.4,28.4,100,30.38,6.0,South,18.4,-,N/A,,Mostly Cloudy,190,2012-11-08 00:40:00
3:55 PM,30.2,30.2,100,30.37,2.0,South,19.6,-,N/A,,Mostly Cloudy,180,2012-11-08 00:55:00
4:07 PM,30.2,30.2,100,30.37,4.0,South,18.4,-,N/A,,Mostly Cloudy,190,2012-11-08 01:07:00
4:30 PM,30.2,30.2,100,30.37,4.0,South,19.6,-,N/A,,Mostly Cloudy,180,2012-11-08 01:30:00
4:55 PM,29.7,30.4,100,30.37,8.0,South,19.6,-,N/A,,Mostly Cloudy,190,2012-11-08 01:55:00
5:55 PM,30.0,30.6,100,30.36,9.0,South,17.3,-,N/A,,Overcast,190,2012-11-08 02:55:00
6:55 PM,29.8,30.2,100,30.35,10.0,SSW,17.3,-,N/A,,Overcast,200,2012-11-08 03:55:00
7:55 PM,29.1,28.9,99,30.35,10.0,South,19.6,-,N/A,,Mostly Cloudy,190,2012-11-08 04:55:00
8:55 PM,29.3,29.1,99,30.35,10.0,SSW,17.3,-,N/A,,Mostly Cloudy,200,2012-11-08 05:55:00
9:55 PM,28.6,27.7,96,30.34,10.0,South,16.1,-,N/A,,Overcast,170,2012-11-08 06:55:00
10:55 PM,28.0,26.6,94,30.34,10.0,South,15.0,-,N/A,,Mostly Cloudy,170,2012-11-08 07:55:00